Weather History for KLVM - February, 2012

Change the Weather History Date:

Monday, February 20, 2012

  Actual Average Record
Temperature  
Mean Temperature 28 °F 30 °F  
Max Temperature 32 °F 41 °F 70 °F (1995)
Min Temperature 23 °F 19 °F -10 °F (1949)
Degree Days  
Heating Degree Days 38 35  
Month to date heating degree days 731  
Since 1 July heating degree days 5072  
Cooling Degree Days 0 0  
Month to date cooling degree days 0  
Year to date cooling degree days 0  
Moisture  
Dew Point 15 °F    
Average Humidity 57    
Maximum Humidity 69    
Minimum Humidity 47    
Precipitation  
Precipitation 0.00 in 0.02 in 0.20 in (2011)
Month to date precipitation 0.34  
Year to date precipitation 0.83  
Sea Level Pressure  
Sea Level Pressure 29.91 in    
Wind  
Wind Speed 19 mph (WSW)    
Max Wind Speed 29 mph    
Max Gust Speed 40 mph    
Visibility 10 miles    
Events      
T = Trace of Precipitation, MM = Missing Value Source: NWS Daily Summary

Daily Weather History Graph

Daily Weather History Graph

Search for Another Location

Airport or City:

Trip Planner

Search our weather history database for the weather conditions in past years. The results will help you decide how hot, cold, wet, or windy it might be!

Date:

Astronomy

Feb. 20, 2012 Rise Set
Actual Time 7:16 AM MST 5:55 PM MST
Civil Twilight 6:46 AM MST 6:25 PM MST
Nautical Twilight 6:11 AM MST 7:00 PM MST
Astronomical Twilight 5:37 AM MST 7:34 PM MST
Moon 6:16 AM MST (2/20) 5:03 PM MST (2/20)
Length of Visible Light 11h 39m
Length of Day
10h 38m
Waning Crescent, 1% of the Moon is Illuminated
Feb 20
Waning Crescent
Feb 21
New
Feb 29
First Quarter
Mar 8
Full
Mar 14
Last Quarter

Hourly Weather History & Observations

Time (MST) Temp. Windchill Dew Point Humidity Pressure Visibility Wind Dir Wind Speed Gust Speed Precip Events Conditions
12:53 AM 26.1 °F 14.0 °F 10.9 °F 53% 29.92 in 10.0 mi West 15.0 mph - N/A   Clear
1:53 AM 25.0 °F 12.6 °F 10.9 °F 55% 29.91 in 10.0 mi West 15.0 mph - N/A   Clear
2:53 AM 23.0 °F 9.6 °F 10.0 °F 58% 29.93 in 10.0 mi WSW 16.1 mph - N/A   Clear
3:53 AM 23.0 °F 9.6 °F 9.0 °F 55% 29.91 in 10.0 mi WSW 16.1 mph - N/A   Clear
4:53 AM 23.0 °F 8.3 °F 9.0 °F 55% 29.90 in 10.0 mi West 19.6 mph - N/A   Scattered Clouds
5:53 AM 24.1 °F 13.7 °F 8.1 °F 51% 29.92 in 10.0 mi West 10.4 mph 19.6 mph N/A   Scattered Clouds
6:53 AM 24.1 °F 10.6 °F 8.1 °F 51% 29.94 in 10.0 mi WSW 17.3 mph 26.5 mph N/A   Overcast
7:53 AM 24.1 °F 11.0 °F 9.0 °F 53% 29.94 in 10.0 mi WSW 16.1 mph 26.5 mph N/A   Overcast
8:53 AM 26.1 °F 11.3 °F 12.0 °F 55% 29.94 in 10.0 mi SW 23.0 mph 33.4 mph N/A   Overcast
9:53 AM 30.0 °F 15.4 °F 12.0 °F 47% 29.93 in 10.0 mi SW 27.6 mph 40.3 mph N/A   Overcast
10:53 AM 30.9 °F 16.9 °F 15.1 °F 52% 29.94 in 10.0 mi SW 26.5 mph 34.5 mph N/A   Overcast
11:53 AM 30.0 °F 18.7 °F 17.1 °F 59% 29.94 in 10.0 mi West 16.1 mph 24.2 mph N/A   Overcast
12:53 PM 32.0 °F 18.6 °F 16.0 °F 52% 29.90 in 10.0 mi West 25.3 mph 35.7 mph N/A   Overcast
1:53 PM 32.0 °F 18.9 °F 18.0 °F 56% 29.89 in 10.0 mi West 24.2 mph 31.1 mph N/A   Overcast
2:53 PM 30.9 °F 17.8 °F 18.0 °F 59% 29.90 in 10.0 mi West 23.0 mph 28.8 mph N/A   Overcast
3:53 PM 30.0 °F 18.7 °F 21.0 °F 69% 29.90 in 10.0 mi West 16.1 mph 24.2 mph N/A   Overcast
4:53 PM 30.0 °F 16.6 °F 19.9 °F 66% 29.90 in 10.0 mi WSW 23.0 mph 29.9 mph N/A   Overcast
5:53 PM 32.0 °F 17.9 °F 16.0 °F 52% 29.88 in 10.0 mi WSW 28.8 mph 36.8 mph N/A   Overcast
6:53 PM 30.9 °F 17.2 °F 17.1 °F 57% 29.90 in 10.0 mi WSW 25.3 mph 33.4 mph N/A   Overcast
7:53 PM 30.0 °F 16.3 °F 18.0 °F 61% 29.90 in 10.0 mi WSW 24.2 mph 34.5 mph N/A   Scattered Clouds
8:53 PM 30.0 °F 16.0 °F 19.0 °F 64% 29.91 in 10.0 mi WSW 25.3 mph 32.2 mph N/A   Overcast
9:53 PM 30.0 °F 16.9 °F 19.0 °F 64% 29.90 in 10.0 mi West 21.9 mph 32.2 mph N/A   Mostly Cloudy
10:53 PM 32.0 °F 18.1 °F 18.0 °F 56% 29.89 in 10.0 mi WSW 27.6 mph 36.8 mph N/A   Overcast
11:53 PM 30.9 °F 19.8 °F 19.9 °F 64% 29.89 in 10.0 mi West 16.1 mph - N/A   Overcast